Location: Zagreb
(45.8000°N, 16.0000°E)
Time: 15:45:55
(UTC+02:00)

Tiros 1 despin weight - Pass Details

Date: 09 August 2022
Orbit: 590 x 639 km, 48.2° (Epoch: 23 September)

Event Time Altitude Azimuth Distance (km) Brightness Sun altitude
Rises 12:36:34 0° 190° (S) 2,844 ? 59.5°
Reaches altitude 10° 12:39:57 10° 163° (SSE) 1,935 ? 59.6°
Maximum altitude 12:42:03 13° 135° (SE) 1,728 ? 59.7°
Drops below altitude 10° 12:44:08 10° 106° (ESE) 1,929 ? 59.8°
Sets 12:47:30 0° 80° (E) 2,828 ? 59.8°
